| time (UTC) | temp C | wind direction | speed KPH | gust KPH | rain 1hr cm | rain 24hr cm | rain mn cm | humidity % | barometer mb |
| 20260510044642 | 9 | 267 | 0.0 | 0.0 | 0.13 | 0.05 | 0.05 | 99 | 1062.6 |
| 20260510043641 | 9 | 262 | 0.0 | 1.6 | 0.00 | 0.03 | 0.03 | 99 | 1062.4 |
| 20260510042640 | 9 | 263 | 0.0 | 0.0 | 0.18 | 0.03 | 0.03 | 99 | 1062.4 |
| 20260510041639 | 9 | 257 | 0.0 | 0.0 | 0.00 | 0.00 | 0.00 | 99 | 1062.3 |
| 20260510040639 | 9 | 255 | 1.6 | 1.6 | 0.00 | 0.00 | 0.00 | 99 | 1062.5 |
| 20260510035637 | 10 | 237 | 9.7 | 11.3 | 0.13 | 0.13 | 0.13 | 99 | 1062.6 |
| 20260510034635 | 10 | 284 | 11.3 | 12.9 | 0.48 | 0.10 | 0.10 | 99 | 1062.7 |
| 20260510033634 | 10 | 237 | 6.4 | 9.7 | 0.13 | 0.03 | 0.03 | 99 | 1062.2 |
| 20260510032635 | 10 | 166 | 8.0 | 9.7 | 0.00 | 0.00 | 0.00 | 97 | 1061.4 |
| 20260510031631 | 10 | 178 | 3.2 | 3.2 | 0.00 | 0.00 | 0.00 | 97 | 1061.9 |
| 20260510030628 | 10 | 227 | 4.8 | 8.0 | 0.00 | 0.00 | 0.00 | 97 | 1061.6 |
| 20260510025623 | 10 | 285 | 1.6 | 3.2 | 0.00 | 0.00 | 0.00 | 97 | 1061.8 |
| 20260510024623 | 10 | 257 | 6.4 | 9.7 | 0.00 | 0.00 | 0.00 | 97 | 1061.5 |
| 20260510023621 | 10 | 163 | 6.4 | 8.0 | 0.00 | 0.00 | 0.00 | 97 | 1061.0 |
| 20260510022619 | 10 | 181 | 4.8 | 9.7 | 0.00 | 0.00 | 0.00 | 97 | 1061.3 |
| 20260510021616 | 10 | 235 | 4.8 | 4.8 | 0.00 | 0.00 | 0.00 | 97 | 1061.3 |
| 20260510020613 | 10 | 232 | 4.8 | 4.8 | 0.00 | 0.00 | 0.00 | 96 | 1061.2 |
| 20260510015611 | 10 | 190 | 6.4 | 9.7 | 0.00 | 0.00 | 0.00 | 96 | 1061.2 |
| 20260510014609 | 10 | 165 | 4.8 | 4.8 | 0.00 | 0.00 | 0.00 | 96 | 1061.5 |
| 20260510013607 | 10 | 163 | 8.0 | 11.3 | 0.00 | 0.00 | 0.00 | 96 | 1061.4 |
| 20260510012602 | 10 | 183 | 11.3 | 12.9 | 0.00 | 0.00 | 0.00 | 96 | 1061.3 |
| 20260510011559 | 10 | 191 | 8.0 | 11.3 | 0.00 | 0.00 | 0.00 | 96 | 1061.1 |
| 20260510010557 | 10 | 200 | 3.2 | 3.2 | 0.00 | 0.00 | 0.00 | 97 | 1061.2 |
| 20260510005555 | 10 | 243 | 1.6 | 1.6 | 0.00 | 0.00 | 0.00 | 97 | 1061.2 |
| 20260510004551 | 10 | 209 | 3.2 | 3.2 | 0.00 | 0.00 | 0.00 | 98 | 1061.0 |
| 20260510003551 | 10 | 212 | 1.6 | 3.2 | 0.00 | 0.00 | 0.00 | 97 | 1060.7 |
| 20260510002548 | 10 | 209 | 1.6 | 1.6 | 0.00 | 0.00 | 0.00 | 97 | 1060.8 |
| 20260510001548 | 10 | 206 | 3.2 | 4.8 | 0.00 | 0.00 | 0.00 | 97 | 1060.7 |
| 20260510000548 | 10 | 200 | 4.8 | 4.8 | 0.00 | 0.00 | 0.00 | 96 | 1060.7 |
| 20260509235547 | 10 | 205 | 4.8 | 4.8 | 0.00 | 0.00 | 0.00 | 96 | 1060.7 |
| 20260509234545 | 10 | 172 | 4.8 | 8.0 | 0.00 | 0.00 | 0.00 | 95 | 1060.7 |
| 20260509233541 | 10 | 194 | 6.4 | 8.0 | 0.00 | 0.00 | 0.00 | 95 | 1060.7 |
| 20260509232540 | 10 | 237 | 1.6 | 3.2 | 0.00 | 0.00 | 0.00 | 94 | 1060.9 |
| 20260509231539 | 10 | 259 | 0.0 | 0.0 | 0.00 | 0.00 | 0.00 | 94 | 1061.0 |
| 20260509230539 | 10 | 256 | 1.6 | 1.6 | 0.00 | 0.00 | 0.00 | 94 | 1060.8 |
| 20260509225537 | 10 | 166 | 4.8 | 8.0 | 0.00 | 0.00 | 0.00 | 94 | 1060.8 |
| 20260509224534 | 11 | 190 | 4.8 | 4.8 | 0.00 | 0.00 | 0.00 | 94 | 1061.1 |
| 20260509223534 | 10 | 221 | 3.2 | 3.2 | 0.00 | 0.00 | 0.00 | 94 | 1060.8 |
| 20260509222533 | 10 | 232 | 1.6 | 1.6 | 0.00 | 0.00 | 0.00 | 94 | 1060.7 |
| 20260509221531 | 10 | 168 | 8.0 | 9.7 | 0.00 | 0.00 | 0.00 | 94 | 1060.8 |
| 20260509220529 | 10 | 150 | 8.0 | 9.7 | 0.00 | 0.00 | 0.00 | 94 | 1060.7 |
| 20260509215526 | 10 | 173 | 6.4 | 9.7 | 0.00 | 0.00 | 0.00 | 95 | 1061.0 |
| 20260509214526 | 10 | 183 | 6.4 | 11.3 | 0.00 | 0.00 | 0.00 | 95 | 1061.0 |
| 20260509213525 | 10 | 169 | 9.7 | 11.3 | 0.00 | 0.00 | 0.00 | 94 | 1061.1 |
| 20260509212525 | 10 | 271 | 1.6 | 1.6 | 0.00 | 0.00 | 0.00 | 94 | 1061.1 |
| 20260509211523 | 10 | 172 | 8.0 | 11.3 | 0.00 | 0.00 | 0.00 | 94 | 1061.2 |
| 20260509210523 | 10 | 203 | 3.2 | 4.8 | 0.00 | 0.00 | 0.00 | 94 | 1061.4 |
| 20260509205520 | 10 | 234 | 4.8 | 4.8 | 0.00 | 0.00 | 0.00 | 94 | 1061.3 |
| 20260509204518 | 10 | 215 | 1.6 | 3.2 | 0.00 | 0.00 | 0.00 | 95 | 1061.2 |
| 20260509203516 | 10 | 200 | 3.2 | 3.2 | 0.00 | 0.00 | 0.00 | 95 | 1061.5 |
| 20260509202514 | 10 | 177 | 9.7 | 12.9 | 0.00 | 0.00 | 0.00 | 95 | 1061.5 |
| 20260509201511 | 10 | 239 | 3.2 | 3.2 | 0.00 | 0.00 | 0.00 | 95 | 1061.6 |
| 20260509200509 | 10 | 228 | 1.6 | 3.2 | 0.00 | 0.00 | 0.00 | 95 | 1061.6 |
| 20260509195507 | 10 | 187 | 4.8 | 4.8 | 0.00 | 0.00 | 0.00 | 95 | 1061.8 |
| 20260509194503 | 10 | 159 | 8.0 | 9.7 | 0.00 | 0.00 | 0.00 | 95 | 1061.9 |
| 20260509193500 | 9 | 266 | 4.8 | 4.8 | 0.00 | 0.00 | 0.00 | 96 | 1062.0 |
| 20260509192459 | 9 | 198 | 4.8 | 4.8 | 0.00 | 0.00 | 0.00 | 96 | 1062.1 |
| 20260509191455 | 9 | 168 | 9.7 | 11.3 | 0.00 | 0.00 | 0.00 | 97 | 1062.3 |
| 20260509190454 | 9 | 194 | 4.8 | 4.8 | 0.00 | 0.00 | 0.00 | 97 | 1062.4 |
| 20260509185449 | 8 | 165 | 8.0 | 9.7 | 0.00 | 0.00 | 0.00 | 97 | 1062.4 |
| 20260509184444 | 8 | 239 | 3.2 | 3.2 | 0.00 | 0.00 | 0.00 | 97 | 1062.3 |
| 20260509183440 | 8 | 186 | 4.8 | 8.0 | 0.00 | 0.00 | 0.00 | 98 | 1062.3 |
| 20260509182439 | 8 | 179 | 8.0 | 9.7 | 0.00 | 0.00 | 0.00 | 99 | 1062.3 |
| 20260509181435 | 8 | 144 | 8.0 | 11.3 | 0.00 | 0.00 | 0.00 | 99 | 1062.3 |
| 20260509180433 | 8 | 168 | 4.8 | 4.8 | 0.00 | 0.00 | 0.00 | 99 | 1062.4 |
| 20260509175432 | 8 | 138 | 4.8 | 4.8 | 0.00 | 0.00 | 0.00 | 98 | 1062.5 |
| 20260509174431 | 8 | 176 | 4.8 | 4.8 | 0.00 | 0.00 | 0.00 | 97 | 1062.7 |
| 20260509173426 | 8 | 154 | 8.0 | 9.7 | 0.00 | 0.00 | 0.00 | 95 | 1062.7 |
| 20260509172426 | 8 | 177 | 3.2 | 3.2 | 0.00 | 0.00 | 0.00 | 94 | 1062.8 |
| 20260509171424 | 8 | 159 | 9.7 | 11.3 | 0.00 | 0.00 | 0.00 | 91 | 1062.8 |
| 20260509170422 | 8 | 213 | 6.4 | 9.7 | 0.00 | 0.00 | 0.00 | 90 | 1062.6 |
| 20260509165418 | 9 | 179 | 8.0 | 9.7 | 0.00 | 0.00 | 0.00 | 88 | 1062.9 |
| 20260509164416 | 10 | 232 | 1.6 | 1.6 | 0.00 | 0.00 | 0.00 | 86 | 1063.2 |
| 20260509163416 | 9 | 238 | 4.8 | 4.8 | 0.00 | 0.00 | 0.00 | 87 | 1063.1 |
| 20260509162413 | 9 | 195 | 4.8 | 4.8 | 0.00 | 0.00 | 0.00 | 87 | 1063.1 |
| 20260509161411 | 9 | 151 | 4.8 | 4.8 | 0.00 | 0.00 | 0.00 | 85 | 1063.4 |
| 20260509160408 | 10 | 173 | 8.0 | 9.7 | 0.00 | 0.00 | 0.00 | 84 | 1063.5 |
| 20260509155406 | 10 | 220 | 3.2 | 3.2 | 0.00 | 0.00 | 0.00 | 85 | 1063.5 |
| 20260509154404 | 9 | 205 | 4.8 | 4.8 | 0.00 | 0.00 | 0.00 | 85 | 1063.5 |
| 20260509153359 | 9 | 231 | 4.8 | 4.8 | 0.00 | 0.00 | 0.00 | 85 | 1063.9 |
| 20260509152357 | 9 | 182 | 4.8 | 8.0 | 0.00 | 0.00 | 0.00 | 85 | 1063.8 |
| 20260509151356 | 8 | 183 | 8.0 | 9.7 | 0.00 | 0.00 | 0.00 | 85 | 1063.8 |
| 20260509150352 | 8 | 205 | 8.0 | 11.3 | 0.00 | 0.00 | 0.00 | 84 | 1063.9 |
| 20260509145350 | 8 | 199 | 4.8 | 8.0 | 0.00 | 0.00 | 0.00 | 86 | 1064.2 |
| 20260509144349 | 8 | 151 | 6.4 | 9.7 | 0.00 | 0.00 | 0.00 | 86 | 1064.3 |
| 20260509143349 | 8 | 169 | 6.4 | 8.0 | 0.00 | 0.00 | 0.00 | 86 | 1064.1 |
| 20260509142347 | 8 | 177 | 8.0 | 9.7 | 0.00 | 0.00 | 0.00 | 85 | 1064.5 |
| 20260509141346 | 8 | 169 | 9.7 | 12.9 | 0.00 | 0.00 | 0.00 | 85 | 1064.5 |
| 20260509140345 | 8 | 193 | 4.8 | 4.8 | 0.00 | 0.00 | 0.00 | 86 | 1064.5 |
| 20260509135340 | 8 | 207 | 1.6 | 3.2 | 0.00 | 0.00 | 0.00 | 84 | 1064.3 |
| 20260509134341 | 8 | 236 | 1.6 | 3.2 | 0.00 | 0.00 | 0.00 | 83 | 1064.5 |
| 20260509133340 | 8 | 165 | 8.0 | 9.7 | 0.00 | 0.00 | 0.00 | 81 | 1064.4 |
| 20260509132337 | 9 | 151 | 9.7 | 16.1 | 0.00 | 0.00 | 0.00 | 79 | 1064.6 |
| 20260509131336 | 9 | 131 | 14.5 | 14.5 | 0.00 | 0.00 | 0.00 | 76 | 1064.5 |
| 20260509130334 | 8 | 135 | 11.3 | 14.5 | 0.00 | 0.00 | 0.00 | 74 | 1064.5 |
| 20260509125333 | 8 | 185 | 9.7 | 12.9 | 0.00 | 0.00 | 0.00 | 71 | 1064.4 |
| 20260509124332 | 8 | 133 | 9.7 | 12.9 | 0.00 | 0.00 | 0.00 | 69 | 1064.5 |
| 20260509123327 | 8 | 137 | 9.7 | 11.3 | 0.00 | 0.00 | 0.00 | 69 | 1064.7 |
| 20260509122325 | 8 | 130 | 14.5 | 16.1 | 0.00 | 0.00 | 0.00 | 69 | 1064.7 |
| 20260509121325 | 8 | 155 | 4.8 | 8.0 | 0.00 | 0.00 | 0.00 | 71 | 1064.8 |
| 20260509120321 | 7 | 191 | 6.4 | 8.0 | 0.00 | 0.00 | 0.00 | 71 | 1064.8 |
| 20260509115316 | 7 | 159 | 8.0 | 9.7 | 0.00 | 0.00 | 0.00 | 70 | 1064.8 |
| 20260509114312 | 7 | 161 | 8.0 | 11.3 | 0.00 | 0.00 | 0.00 | 70 | 1065.0 |
| 20260509113307 | 7 | 125 | 6.4 | 9.7 | 0.00 | 0.00 | 0.00 | 69 | 1065.1 |
| 20260509112307 | 6 | 162 | 11.3 | 14.5 | 0.00 | 0.00 | 0.00 | 68 | 1064.8 |
| 20260509111307 | 6 | 141 | 11.3 | 12.9 | 0.00 | 0.00 | 0.00 | 68 | 1064.9 |
| 20260509110307 | 6 | 141 | 12.9 | 12.9 | 0.00 | 0.00 | 0.00 | 71 | 1064.9 |
| 20260509105306 | 5 | 149 | 6.4 | 8.0 | 0.00 | 0.00 | 0.00 | 69 | 1065.2 |
| 20260509104302 | 5 | 147 | 8.0 | 9.7 | 0.00 | 0.00 | 0.00 | 69 | 1065.2 |
| 20260509103257 | 5 | 169 | 8.0 | 9.7 | 0.00 | 0.00 | 0.00 | 71 | 1064.9 |
| 20260509102252 | 0 | 302 | 1.6 | 1.6 | 0.00 | 0.00 | 0.00 | 99 | 1065.0 |
| 20260509101250 | -1 | 306 | 3.2 | 3.2 | 0.00 | 0.00 | 0.00 | 99 | 1065.0 |
| 20260509100245 | -1 | 307 | 3.2 | 3.2 | 0.00 | 0.00 | 0.00 | 99 | 1064.8 |
| 20260509095245 | -1 | 307 | 3.2 | 3.2 | 0.00 | 0.00 | 0.00 | 99 | 1065.0 |
| 20260509094244 | -1 | 303 | 1.6 | 1.6 | 0.00 | 0.00 | 0.00 | 99 | 1064.9 |
| 20260509093239 | -1 | 292 | 1.6 | 1.6 | 0.00 | 0.00 | 0.00 | 99 | 1065.1 |
| 20260509092235 | -1 | 311 | 1.6 | 1.6 | 0.00 | 0.00 | 0.00 | 99 | 1064.9 |
| 20260509091235 | -1 | 309 | 1.6 | 1.6 | 0.00 | 0.00 | 0.00 | 99 | 1065.1 |
| 20260509090235 | -2 | 294 | 1.6 | 3.2 | 0.00 | 0.00 | 0.00 | 99 | 1065.2 |
| 20260509085230 | -2 | 302 | 1.6 | 1.6 | 0.00 | 0.00 | 0.00 | 99 | 1065.2 |
| 20260509084229 | -2 | 309 | 3.2 | 3.2 | 0.00 | 0.00 | 0.00 | 99 | 1065.3 |
| 20260509083224 | -2 | 303 | 3.2 | 3.2 | 0.00 | 0.00 | 0.00 | 99 | 1065.5 |
| 20260509082223 | -2 | 298 | 1.6 | 1.6 | 0.00 | 0.00 | 0.00 | 99 | 1065.4 |
| 20260509081223 | -2 | 290 | 1.6 | 1.6 | 0.00 | 0.00 | 0.00 | 99 | 1065.5 |
| 20260509080219 | -2 | 281 | 1.6 | 1.6 | 0.00 | 0.00 | 0.00 | 99 | 1065.3 |
| 20260509075214 | -2 | 285 | 0.0 | 0.0 | 0.00 | 0.00 | 0.00 | 99 | 1065.4 |
| 20260509074214 | -1 | 294 | 1.6 | 1.6 | 0.00 | 0.00 | 0.00 | 99 | 1065.4 |
| 20260509073213 | -1 | 286 | 1.6 | 1.6 | 0.00 | 0.00 | 0.00 | 99 | 1065.3 |
| 20260509072212 | -1 | 285 | 0.0 | 1.6 | 0.00 | 0.00 | 0.00 | 99 | 1065.4 |
| 20260509071212 | -1 | 290 | 1.6 | 1.6 | 0.00 | 0.00 | 0.00 | 98 | 1065.4 |
| 20260509070211 | -1 | 286 | 0.0 | 1.6 | 0.00 | 0.00 | 0.00 | 98 | 1065.3 |
| 20260509065209 | -1 | 295 | 1.6 | 1.6 | 0.00 | 0.00 | 0.00 | 98 | 1065.5 |
| 20260509064204 | -1 | 293 | 1.6 | 1.6 | 0.00 | 0.00 | 0.00 | 98 | 1065.4 |
| 20260509063203 | -1 | 290 | 1.6 | 1.6 | 0.00 | 0.00 | 0.00 | 98 | 1065.4 |
| 20260509062203 | -1 | 288 | 1.6 | 1.6 | 0.00 | 0.00 | 0.00 | 98 | 1065.5 |
| 20260509061203 | -1 | 302 | 1.6 | 1.6 | 0.00 | 0.00 | 0.00 | 98 | 1065.6 |
| 20260509060203 | -1 | 297 | 1.6 | 1.6 | 0.00 | 0.00 | 0.00 | 97 | 1065.9 |
| 20260509055200 | -1 | 287 | 1.6 | 1.6 | 0.00 | 0.00 | 0.00 | 97 | 1065.9 |
| 20260509054200 | -1 | 286 | 1.6 | 1.6 | 0.00 | 0.00 | 0.00 | 97 | 1066.2 |
| 20260509053155 | -1 | 281 | 1.6 | 1.6 | 0.00 | 0.00 | 0.00 | 96 | 1066.1 |
| 20260509052150 | -1 | 282 | 0.0 | 1.6 | 0.00 | 0.00 | 0.00 | 96 | 1066.0 |
| 20260509051145 | -1 | 280 | 0.0 | 0.0 | 0.00 | 0.00 | 0.00 | 96 | 1066.0 |
| 20260509050144 | -1 | 301 | 1.6 | 1.6 | 0.00 | 0.00 | 0.00 | 96 | 1066.4 |